Regional Weather Roundup
Issued by NWS State College, PA

Home | Current Version | Previous Version | Text Only | Print | Product List | Glossary On
Versions: 1 2 3 4 5 6 7 8 9 10 11 12 13 14 15 16 17 18 19 20 21 22 23 24 25 26 27 28 29 30 31 32 33 34 35 36 37 38 39 40 41 42 43 44 45 46 47 48 49 50
000
ASUS41 KCTP 300810
RWRCTP

REGIONAL WEATHER ROUNDUP
NATIONAL WEATHER SERVICE STATE COLLEGE PA
400 AM EDT FRI SEP 30 2016

Note: "fair" indicates few or no clouds below 12,000 feet with no
significant weather and/or obstructions to visibility.

* = STATION THAT DOES NOT REPORT PRECIPITATION /E.G. RAIN...SNOW...ETC/
    THUNDER OR FOG.

PAZ002>004-007>009-013>016-020>023-029>032-300900-
WESTERN PENNSYLVANIA

CITY           SKY/WX    TMP DP  RH WIND       PRES   REMARKS
ERIE           CLOUDY    61  56  83 E8        30.22R
MEADVILLE      HVY RAIN  56  54  93 E9        30.22S FOG
FRANKLIN*        N/A     54  52  94 E5        30.23S
NEW CASTLE     LGT RAIN  57  56  96 E9G18     30.19R
BEAVER COUNTY  NOT AVBL
BUTLER*        CLOUDY    55  54  94 NE9       30.21F
PITTSBURGH INT CLOUDY    58  57  97 NE12      30.16S
PITTSBURGH     CLOUDY    57  54  89 N7        30.15F FOG
INDIANA*       CLOUDY    55  55 100 E7        30.21S
LATROBE        CLOUDY    57  57 100 CALM      30.15F
WASHINGTON CO* CLOUDY    57  55  94 NE9       30.15F
$$

PAZ004>006-010>012-017>019-024>028-033>037-041-042-045-046-049>053-300900-
CENTRAL PENNSYLVANIA

CITY           SKY/WX    TMP DP  RH WIND       PRES   REMARKS
BRADFORD       CLOUDY    53  51  93 E9        30.27R
DUBOIS         LGT RAIN  54  50  86 E13G22    30.22S
CLEARFIELD     LGT RAIN  53  53 100 NE10      30.24S
JOHNSTOWN      CLOUDY    53  53 100 E10G18    30.18S
ALTOONA        LGT RAIN  54  54 100 NE8       30.22F FOG
STATE COLLEGE  CLOUDY    54  53  97 NE8       30.24F FOG
WILLIAMSPORT   LGT RAIN  56  52  86 E10       30.26F
SELINSGROVE    LGT RAIN  55  55 100 NE7       30.27S
FT INDIANTOWN  LGT RAIN  55  53  93 NE13G21   30.24S
CAPITAL CITY   LGT RAIN  57  53  86 E14G24    30.23R
HARRISBURG     LGT RAIN  57  55  93 E12       30.22S
YORK           LGT RAIN  56  56 100 E8        30.21R FOG
$$

PAZ038>040-043-044-047-048-054-055-060>062-067>071-300900-
EASTERN PENNSYLVANIA

CITY           SKY/WX    TMP DP  RH WIND       PRES   REMARKS
SCRANTON       LGT RAIN  52  47  83 NE14G23   30.31F
MOUNT POCONO   LGT RAIN  47  44  90 NE15G28   30.31F
ALLENTOWN      RAIN      53  50  89 NE12      30.29F FOG
QUAKERTOWN*    CLOUDY    54  52  94 NE12G17   30.26F
READING        HVY RAIN  54  51  90 NE7       30.26S FOG
LANCASTER      HVY RAIN  56  55  97 NE20G30   30.21S FOG
COATESVILLE    HVY RAIN  54  54 100 NE10G20   30.22F
POTTSTOWN      LGT RAIN  53  52  96 NE14G23   30.24F
BLUE BELL      CLOUDY    54  52  94 NE9G21    30.21F
DOYLESTOWN     CLOUDY    54  53  97 NE13G24   30.23F
WILLOW GROVE   NOT AVBL
NORTH PHILA    CLOUDY    58  56  93 NE20G29   30.23F FOG
PHILADELPHIA   LGT RAIN  58  56  93 NE18G31   30.19F FOG
$$




USA.gov is the U.S. government's official web portal to all federal, state and local government web resources and services.